Location: Camrose
(53.0181°N, 112.8304°W)
Time: 12:51:40
(UTC+00:00)

Envisat - Visible Passes

Search period start: 02 December 2021 00:00
Search period end: 12 December 2021 00:00
Orbit: 764 x 766 km, 98.2° (Epoch: 02 December)

Date Brightness Start Highest point End Pass type
(mag) Time Alt. Az. Time Alt. Az. Time Alt. Az.
02 Dec 6.3 01:28:53 10° W 01:30:09 11° W 01:31:27 10° WNW visible
02 Dec 4.8 11:47:52 10° NNE 11:52:18 29° E 11:56:42 10° SSE visible
02 Dec 3.1 13:26:39 10° N 13:31:34 50° WNW 13:36:27 10° SW visible
03 Dec 5.7 00:48:53 10° SW 00:52:44 21° W 00:56:37 10° NW visible
03 Dec 5.7 11:12:00 10° NE 11:14:59 15° E 11:17:57 10° ESE visible
03 Dec 2.9 12:49:39 10° NNE 12:54:47 87° ESE 12:59:52 10° SSW visible
03 Dec 4.2 14:29:37 10° N 14:33:12 20° NW 14:36:46 10° W visible
04 Dec 4.5 00:10:45 10° SSW 00:15:31 40° W 00:20:20 10° NNW visible
04 Dec 4.0 12:12:53 10° NNE 12:17:49 46° E 12:22:40 10° S visible
04 Dec 3.6 13:52:11 10° N 13:56:43 33° WNW 14:01:14 10° SW visible
05 Dec 6.0 01:15:54 10° WSW 01:18:24 14° W 01:20:55 10° NW visible
05 Dec 5.1 11:36:31 10° NE 11:40:38 24° E 11:44:43 10° SE visible
05 Dec 2.9 13:15:01 10° N 13:20:03 61° WNW 13:25:03 10° SSW visible
06 Dec 5.4 00:36:50 10° SSW 00:41:03 26° W 00:45:18 10° NW visible
06 Dec 6.0 11:01:07 10° ENE 11:03:15 12° E 11:05:23 10° ESE visible
06 Dec 3.2 12:38:06 10° NNE 12:43:12 72° ESE 12:48:17 10° S visible
06 Dec 4.1 14:17:51 10° N 14:21:46 23° WNW 14:25:42 10° WSW visible
06 Dec 4.1 23:58:59 10° S 00:03:54 49° W 00:08:51 10° NNW visible
07 Dec 4.4 12:01:25 10° NNE 12:06:10 37° E 12:10:52 10° SSE visible
07 Dec 3.4 13:40:30 10° N 13:45:14 40° WNW 13:49:57 10° SW visible
08 Dec 5.9 01:03:28 10° SW 01:06:41 17° W 01:09:54 10° NW visible
08 Dec 5.4 11:25:13 10° NE 11:28:56 20° E 11:32:38 10° SE visible
08 Dec 2.9 13:03:26 10° NNE 13:08:32 74° WNW 13:13:34 10° SSW visible
08 Dec 4.5 14:43:43 10° NNW 14:46:45 16° NW 14:49:45 10° W visible
09 Dec 5.0 00:24:53 10° SSW 00:29:23 31° W 00:33:56 10° NNW visible
09 Dec 3.5 12:26:34 10° NNE 12:31:37 59° E 12:36:37 10° S visible
09 Dec 3.9 14:06:06 10° N 14:10:20 27° WNW 14:14:33 10° WSW visible
10 Dec 6.4 01:32:00 10° W 01:32:25 10° W 01:32:49 10° WNW visible
10 Dec 4.7 11:50:01 10° NNE 11:54:31 31° E 11:59:00 10° SSE visible
10 Dec 3.2 13:28:51 10° N 13:33:44 48° WNW 13:38:36 10° SW visible
11 Dec 5.7 00:51:14 10° SW 00:54:57 20° W 00:58:43 10° NW visible
11 Dec 5.6 11:14:02 10° NE 11:17:13 16° E 11:20:23 10° SE visible
11 Dec 2.9 12:51:50 10° NNE 12:56:58 89° WNW 13:02:03 10° SSW visible
11 Dec 4.3 14:31:52 10° N 14:35:21 19° NW 14:38:48 10° W visible
